Location: Haliburton Scout Reserve
(45.0900°N, 78.3200°W)
Time: 15:16:42
(UTC-04:00)

Courier 1B - Pass Details

Date: 06 December 2023
Orbit: 962 x 1208 km, 28.3° (Epoch: 13 October)

Event Time Altitude Azimuth Distance (km) Brightness Sun altitude
Rises 10:22:13 0° 235° (SW) 3,757 10.7 18.5°
Reaches altitude 10° 10:25:54 10° 217° (SW) 2,764 10.4 18.8°
Maximum altitude 10:30:06 18° 178° (S) 2,219 11.1 19.1°
Drops below altitude 10° 10:34:13 10° 138° (SE) 2,699 11.4 19.4°
Sets 10:37:44 0° 120° (ESE) 3,633 11.3 19.6°
